Overview Statistics Trail Chart Weather Telemetry Raw packets
 

This is the latest recevied weather packets stored in our database for station/object 4S6DRJ-13. If no packets are shown the sender has not sent any weather packets the latest 10 day(s).

<< 92 93 94 95 96 97 98 >>
Time Temp. Humidity Pressure Rain* Wind** Luminosity Snow
1788316216 29.44° C 80% 1010 hPa 0 mm 2.24 m/s, 231° 204 W/m² -
1788316155 28.89° C 80% 1010.3 hPa 0 mm 1.34 m/s, 290° 483 W/m² -
1788316093 28.89° C 80% 1010 hPa 0 mm 1.34 m/s, 295° 512 W/m² -
1788316033 28.89° C 81% 1010.1 hPa 0 mm 0.89 m/s, 36° 493 W/m² -
1788315971 28.89° C 81% 1010.1 hPa 0 mm 0.89 m/s, 221° 245 W/m² -
1788315911 28.89° C 80% 1010.1 hPa 0 mm 0.89 m/s, 233° 446 W/m² -
1788315850 28.89° C 81% 1010.1 hPa 0 mm 1.79 m/s, 222° 420 W/m² -
1788315789 28.89° C 81% 1010.1 hPa 0 mm 1.34 m/s, 257° 412 W/m² -
1788315728 28.89° C 81% 1010.3 hPa 0 mm 1.34 m/s, 153° 394 W/m² -
1788315668 28.89° C 81% 1010.2 hPa 0 mm 1.34 m/s, 253° 383 W/m² -
1788315606 28.89° C 81% 1010.2 hPa 0 mm 1.34 m/s, 322° 385 W/m² -
1788315545 28.89° C 81% 1009.9 hPa 0 mm 1.34 m/s, 346° 390 W/m² -
1788315484 28.89° C 82% 1010.2 hPa 0 mm 0.89 m/s, 251° 390 W/m² -
1788315423 28.89° C 81% 1010.1 hPa 0 mm 1.34 m/s, 195° 375 W/m² -
1788315362 28.89° C 82% 1009.8 hPa 0 mm 0.45 m/s, 286° 362 W/m² -
1788315301 28.89° C 82% 1010 hPa 0 mm 0.89 m/s, 296° 357 W/m² -
1788315240 28.89° C 82% 1009.9 hPa 0 mm 1.34 m/s, 349° 352 W/m² -
1788315179 28.89° C 82% 1009.9 hPa 0 mm 0.89 m/s, 235° 350 W/m² -
1788315118 28.89° C 82% 1010 hPa 0 mm 1.34 m/s, 211° 103 W/m² -
1788315057 28.89° C 82% 1010.1 hPa 0 mm 1.79 m/s, 230° 343 W/m² -
1788314996 28.33° C 82% 1009.8 hPa 0 mm 0.89 m/s, 195° 335 W/m² -
1788314935 28.33° C 83% 1010 hPa 0 mm 0.89 m/s, 227° 328 W/m² -
1788314874 28.33° C 83% 1010.1 hPa 0 mm 1.79 m/s, 184° 321 W/m² -
1788314815 28.33° C 83% 1009.8 hPa 0 mm 0.89 m/s, 298° 311 W/m² -
1788314752 28.33° C 83% 1009.8 hPa 0 mm 0.45 m/s, 223° 294 W/m² -

* Rain latest hour (hover to see other rain measurements)
** Current wind speed in m/s (hover to see current wind gust speed)